Simultaneous Nadir Overpasses (SNOs) Predictions

Prediction of SNOs between LANDSAT-8 and METOP-B Satellite Orbit:

Table of predicted SNOs for the next 14.0 days since TLE Epoch: 12/28/2019
Index Date (LANDSAT-8) Time (LANDSAT-8) Lat,Lon (LANDSAT-8) SZA (LANDSAT-8 ) Date (METOP-B) Time (METOP-B) Lat,Lon (METOP-B) SZA (METOP-B ) Distance(km) Time Diff (sec)
1 12/28/2019 13:42:30 -81.10,-166.10 73.77 12/28/2019 13:41:50 -81.10,-165.97 73.77 2.32 40
2 12/28/2019 14:31:56 81.11, 1.60 106.24 12/28/2019 14:32:30 81.11, 1.75 106.28 2.68 34
3 12/31/2019 09:16:44 -81.09, -99.87 74.00 12/31/2019 09:16:14 -81.09, -99.91 74.02 0.67 30
4 12/31/2019 10:06:09 81.11, 68.17 106.06 12/31/2019 10:06:53 81.11, 68.14 106.07 0.42 44
5 01/03/2020 04:50:58 -81.10, -33.30 74.25 01/03/2020 04:50:37 -81.10, -33.12 74.23 3.21 21
6 01/03/2020 05:40:23 81.12, 134.71 105.81 01/03/2020 05:41:16 81.13, 134.90 105.85 3.26 53
7 01/06/2020 00:25:12 -81.10, 33.24 74.55 01/06/2020 00:25:01 -81.10, 33.28 74.56 0.75 11
8 01/06/2020 01:14:37 81.13,-158.77 105.50 01/06/2020 01:15:40 81.12,-158.74 105.52 0.58 63
9 01/08/2020 19:10:19 80.53, -75.12 103.98 01/08/2020 19:09:05 80.73, -75.63 104.09 23.51 74
10 01/08/2020 19:59:25 -81.11, 99.76 74.92 01/08/2020 19:59:24 -81.10, 99.67 74.94 1.77 1




NCC Satellite Simultaneous Nadir Overpasses (SNOs) Prediction Service
